STARLINK-4018 (52697 NORAD) Tracking and Keplerian Element Data
This shows tracking and keplerian element data for the satellite.
Feedback or suggestion? Click here.
Element | Value |
Catalog | 52697 |
Name | STARLINK-4018 |
Epoch Orbit | 130 |
Epoch Day | 192.91667824 |
Epoch Year | 2022 |
RAAN | 31.0583 |
Inclination | 53.2175 |
Eccentricity | 0.0001855 |
Argument of Perigee | 39.8601 |
Mean Anonmoly | 105.571 |
Mean Motion | 15.34626372 |
Decay Rate | -0.01067384 |
L1 | 1 52697U 22053AT 22192.91667824 -.01067384 00000+0 -34169-1 0 9994 |
L2 | 2 52697 53.2175 31.0583 0001855 39.8601 105.5710 15.34626372 1302 |
Live tracking and technical data element details for STARLINK-4018 (NORAD 52697). STARLINK-4018 can be tracked NOW for your location showing map with azimuth and elevation plus other details from your city location.
Track the satellite on the map from your city or location and see movement details for azimuth, elevation, latitude, longitude, range, height, and movement on the map or in text.
IsCatalogInMostPopularTable: catalog: 52697, numindb: 8
Update: records affected: 1
GetName: 52697 STARLINK-4018
Hit Count: updated at: Sun, 14 Aug 2022 00:46:16 GMT